EDISTO NM Southeast of Charleston, SC (41004)

Conditions for Sunday

Daily
Weekly
Monthly
Marine Data Graph

Marine & Boating Location Search

Enter a coastal zip code for marine weather.

General Information

Location: 32.501 North -79.099 West
Buoy Type: 3-meter discus buoy
Buoy Hull: 3D58
Payload: ARES payload
Owned by: NDBC
Windspeed: Measured by obtained from anemometer
Sea Surface: Measured by Intake
Note:
Right whales are active off SC from November to April. Speed restrictions of 10 knots apply to vessels 65 feet or greater in specific areas and times along the U.S. East Coast. It is illegal to approach right whales within 500 yards. To learn more about right whales and rules protecting them, go to: http://www.nmfs.noaa.gov/pr/shipstrike.

Weather and Wave Data

Time Temp Humidity Wind Dominant Wave Wind Wave Wave Swell Pressure
  Air
(°F)
Water
(°F)
  Dir Speed
(kts)
Speed
(mph)
Period
(sec)
Height
(ft)
Range
(ft)
Period
(sec)
Height
(ft)
Range
(ft)
Period
(sec)
Height
(ft)
Range
(ft)
Atmo.
(in)
Tend.
(in)
20:00 83 85 79 SSW 9.7 11.2 - - - - - - 30.02 -0.01
20:20 83 85 80 South 13.6 15.7 - - - - - - 30.02 -
20:30 83
-
80 SSW 13.6 15.7 - - - - - - 30.02 -
20:40 83 85 79 SSW 13.6 15.7 - - - - - - 30.03 -
20:50 83 85 79 SSW 13.6 15.7 9 1.97 exactly 2.0 4 1.64 0.82 - 2.46 9 1.64 0.82 - 2.46 30.02 -
21:10 83 85 79 SSW 13.6 15.7 - - - - - - 30.02 -
21:20 84 85 76 SSW 15.6 17.9 - - - - - - 30.02 -
21:30 84 85 76 South 15.6 17.9 - - - - - - 30.02 -
21:40 84 85 75 SSW 17.5 20.1 - - - - - - 30.02 -
21:50 84 85 75 SSW 17.5 20.1 9 1.97 exactly 2.0 4 1.64 0.82 - 2.46 9 1.64 0.82 - 2.46 30.03 -
22:00 84 85 75 SSW 17.5 20.1 - - - - - - 30.03 -
22:10 84 85 76 SSW 17.5 20.1 - - - - - - 30.03 -
22:20 84 85 77 SSW 17.5 20.1 - - - - - - 30.04 -
22:30 84 85 77 SSW 17.5 20.1 - - - - - - 30.04 -
22:40 84 85 78 SSW 17.5 20.1 - - - - - - 30.04 -
22:50 84 85 79 SSW 15.6 17.9 3 2.30 exactly 2.3 3 1.64 0.82 - 2.46 8 1.64 0.82 - 2.46 30.05 -
23:10 84 85 80 SSW 17.5 20.1 - - - - - - 30.05 -
23:20 84 85 80 SSW 17.5 20.1 - - - - - - 30.05 -
23:30 84 85 77 SSW 15.6 17.9 - - - - - - 30.06 -
23:40 84 85 79 SSW 15.6 17.9 - - - - - - 30.06 -
00:00 84 85 79 SSW 15.6 17.9 - - - - - - 30.06 +0.03
00:10 84 85 78 SSW 15.6 17.9 - - - - - - 30.06 -
00:20 85 85 74 SSW 15.6 17.9 - - - - - - 30.06 -
00:30 85 85 76 SSW 15.6 17.9 - - - - - - 30.06 -
00:40 84 85 78 SSW 15.6 17.9 - - - - - - 30.06 -
00:50 84 85 80 SSW 15.6 17.9 4 2.62 exactly 2.6 4 1.64 0.82 - 2.46 9 1.64 0.82 - 2.46 30.05 -
01:10 84 85 78 SW 15.6 17.9 - - - - - - 30.06 -
01:20 85 85 75 SW 15.6 17.9 - - - - - - 30.06 -
01:30 84 85 78 SW 15.6 17.9 - - - - - - 30.05 -
01:40 84 85 77 SW 15.6 17.9 - - - - - - 30.05 -
01:50 84 85 78 SW 13.6 15.7 4 2.95 exactly 3.0 4 3.28 2.46 - 4.10 9 1.64 0.82 - 2.46 30.05 -
02:00 84
-
77 SW 13.6 15.7 - - - - - - 30.05 -
02:10 84 85 76 SW 13.6 15.7 - - - - - - 30.04 -
02:20 84 85 76 SW 13.6 15.7 - - - - - - 30.04 -
02:30 84 85 76 SW 13.6 15.7 - - - - - - 30.04 -
02:50 84 85 78 SW 13.6 15.7 4 2.95 exactly 3.0 4 3.28 2.46 - 4.10 8 1.64 0.82 - 2.46 30.04 -
03:10 84 85 78 SW 13.6 15.7 - - - - - - 30.03 -
03:20 84 85 77 SW 13.6 15.7 - - - - - - 30.03 -
04:10 84 85 78 SW 13.6 15.7 - - - - - - 30.03 -
04:20 84 85 78 SW 13.6 15.7 - - - - - - 30.03 -
04:30 84 85 79 SW 13.6 15.7 - - - - - - 30.03 -
04:50 84 85 77 SW 15.6 17.9 4 2.95 exactly 3.0 4 3.28 2.46 - 4.10 8 1.64 0.82 - 2.46 30.03 -
05:10 84 85 78 SW 13.6 15.7 - - - - - - 30.03 -
05:20 84 85 79 SW 13.6 15.7 - - - - - - 30.04 -
05:30 84 85 80 SW 13.6 15.7 - - - - - - 30.04 -
06:10 84 85 78 SW 15.6 17.9 - - - - - - 30.04 -
06:20 84 85 77 SW 15.6 17.9 - - - - - - 30.04 -
06:30 84 85 76 SW 15.6 17.9 - - - - - - 30.04 -
06:40 84 85 76 SW 13.6 15.7 - - - - - - 30.04 -
07:20 84 85 77 SW 13.6 15.7 - - - - - - 30.04 -
07:30 84 85 78 SW 11.7 13.4 - - - - - - 30.05 -
08:20 84 85 78 SW 13.6 15.7 - - - - - - 30.06 -
08:40 84 85 76 SW 13.6 15.7 - - - - - - 30.05 -
09:10 84 85 76 SW 13.6 15.7 - - - - - - 30.06 -
09:20 84 85 77 SW 13.6 15.7 - - - - - - 30.06 -
09:30 84 85 76 SW 13.6 15.7 - - - - - - 30.06 -
09:40 84 85 76 SW 13.6 15.7 - - - - - - 30.06 -
09:50 84 85 78 SW 11.7 13.4 5 2.95 exactly 3.0 5 3.28 2.46 - 4.10 8 1.64 0.82 - 2.46 30.06 -
10:10 84 85 77 SW 13.6 15.7 - - - - - - 30.06 -
10:20 84 85 77 SW 13.6 15.7 - - - - - - 30.06 -
10:40 84 85 78 SW 13.6 15.7 - - - - - - 30.07 -
10:50 84 85 78 SW 13.6 15.7 5 2.95 exactly 3.0 5 3.28 2.46 - 4.10 8 1.64 0.82 - 2.46 30.07 -
11:20 84 85 77 WSW 15.6 17.9 - - - - - - 30.07 -
11:30 84 85 77 SW 13.6 15.7 - - - - - - 30.07 -
11:40 84 85 78 SW 13.6 15.7 - - - - - - 30.07 -
11:50 84 85 77 SW 13.6 15.7 5 2.95 exactly 3.0 5 3.28 2.46 - 4.10 8 1.64 0.82 - 2.46 30.07 -
12:00 84 85 76 WSW 15.6 17.9 - - - - - - 30.07 -
12:10 84 85 78 WSW 15.6 17.9 - - - - - - 30.07 -
12:30 84 85 78 SW 13.6 15.7 - - - - - - 30.07 -
12:50 84 85 77 SW 15.6 17.9 5 3.28 exactly 3.3 5 3.28 2.46 - 4.10 7 1.64 0.82 - 2.46 30.07 -
13:00 84 85 76 WSW 15.6 17.9 - - - - - - 30.07 -
13:10 84 85 78 WSW 13.6 15.7 - - - - - - 30.07 -
13:20 84 85 78 WSW 13.6 15.7 - - - - - - 30.06 -
13:30 84 85 78 WSW 13.6 15.7 - - - - - - 30.06 -
13:40 84 85 79 WSW 13.6 15.7 - - - - - - 30.06 -
13:50 84 85 80 SW 11.7 13.4 5 2.95 exactly 3.0 5 3.28 2.46 - 4.10 8 1.64 0.82 - 2.46 30.06 -
14:00 84 85 79 SW 11.7 13.4 - - - - - - 30.06 -
14:10 84 85 80 SW 13.6 15.7 - - - - - - 30.06 -
14:40 84 85 80 SW 11.7 13.4 - - - - - - 30.06 -
14:50 84 85 80 SW 13.6 15.7 5 2.95 exactly 3.0 5 3.28 2.46 - 4.10 7 1.64 0.82 - 2.46 30.05 -
15:00 84 85 80 SW 13.6 15.7 - - - - - - 30.05 -0.02
15:20 84 85 81 SW 13.6 15.7 - - - - - - 30.05 -
15:30 84 85 81 SW 13.6 15.7 - - - - - - 30.05 -
15:40 84 85 80 SW 11.7 13.4 - - - - - - 30.05 -
15:50 84 85 78 SW 11.7 13.4 4 2.62 exactly 2.6 4 3.28 2.46 - 4.10 8 1.64 0.82 - 2.46 30.04 -
16:10 84 85 78 SW 11.7 13.4 - - - - - - 30.04 -
16:20 84 85 78 SW 11.7 13.4 - - - - - - 30.03 -
16:30 84 85 78 SW 11.7 13.4 - - - - - - 30.03 -
16:40 84 85 79 SW 11.7 13.4 - - - - - - 30.03 -
17:10 84 85 80 SW 11.7 13.4 - - - - - - 30.02 -
17:20 84 85 80 SSW 11.7 13.4 - - - - - - 30.02 -
17:40 84 85 79 SSW 11.7 13.4 - - - - - - 30.02 -
18:00 84 85 80 SSW 11.7 13.4 - - - - - - 30.01 -0.03
18:10 84 85 78 SSW 11.7 13.4 - - - - - - 30.01 -
18:20 84 85 80 SSW 11.7 13.4 - - - - - - 30.01 -
18:30 84 85 79 SSW 13.6 15.7 - - - - - - 30.01 -
18:50 84 85 78 SSW 13.6 15.7 4 2.30 exactly 2.3 4 1.64 0.82 - 2.46 8 1.64 0.82 - 2.46 30.02 -
19:10 84 85 77 SSW 13.6 15.7 - - - - - - 30.02 -
19:20 84 85 78 SSW 13.6 15.7 - - - - - - 30.02 -
19:30 84 85 78 SSW 13.6 15.7 - - - - - - 30.03 -
19:40 84 85 77 SSW 15.6 17.9 - - - - - - 30.03 -
19:50 84 85 75 SSW 15.6 17.9 7 2.30 exactly 2.3 4 1.64 0.82 - 2.46 7 1.64 0.82 - 2.46 30.03 -
20:30 84 85 75 SSW 15.6 17.9 - - - - - - 30.03 -
20:40 84 85 75 South 15.6 17.9 - - - - - - 30.03 -
20:50 84 85 75 SSW 15.6 17.9 7 2.30 exactly 2.3 4 1.64 0.82 - 2.46 7 1.64 0.82 - 2.46 30.04 -
21:00 84 85 76 SSW 15.6 17.9 - - - - - - 30.04 +0.02
21:10 84 85 76 SSW 15.6 17.9 - - - - - - 30.04 -
21:20 84 85 75 South 15.6 17.9 - - - - - - 30.04 -
21:30 84 85 75 South 15.6 17.9 - - - - - - 30.04 -
21:40 85 85 73 SSW 17.5 20.1 - - - - - - 30.04 -
21:50 84 85 78 SSW 15.6 17.9 7 2.30 exactly 2.3 3 1.64 0.82 - 2.46 7 1.64 0.82 - 2.46 30.04 -
22:10 84 85 77 SSW 17.5 20.1 - - - - - - 30.04 -
22:20 84 85 78 South 17.5 20.1 - - - - - - 30.04 -
22:30 84 85 78 SSW 17.5 20.1 - - - - - - 30.04 -
22:40 84 85 77 South 15.6 17.9 - - - - - - 30.04 -
23:00 84 85 78 SSW 15.6 17.9 - - - - - - 30.04 +0.01
23:10 84 85 78 South 17.5 20.1 - - - - - - 30.04 -
23:20 84 85 78 South 17.5 20.1 - - - - - - 30.04 -
23:30 84 85 78 SSW 17.5 20.1 - - - - - - 30.04 -
23:40 84 85 80 SSW 15.6 17.9 - - - - - - 30.04 -
23:50 84 85 78 SSW 15.6 17.9 4 2.95 exactly 3.0 4 3.28 2.46 - 4.10 7 1.64 0.82 - 2.46 30.04 -
00:20 84 85 76 SSW 17.5 20.1 - - - - - - 30.03 -
00:30 84 85 76 SSW 17.5 20.1 - - - - - - 30.04 -
00:40 84 85 76 SSW 17.5 20.1 - - - - - - 30.03 -
00:50 84 85 76 SSW 17.5 20.1 4 2.95 exactly 3.0 4 3.28 2.46 - 4.10 7 1.64 0.82 - 2.46 30.04 -
01:00 84 85 77 SSW 17.5 20.1 - - - - - - 30.04 -
01:10 84 85 76 SSW 19.4 22.4 - - - - - - 30.04 -
01:20 84 85 78 SSW 17.5 20.1 - - - - - - 30.04 -
01:30 84 85 77 SSW 17.5 20.1 - - - - - - 30.03 -
01:50 84 85 76 SW 17.5 20.1 4 3.28 exactly 3.3 4 3.28 2.46 - 4.10 8 1.64 0.82 - 2.46 30.03 -
02:10 84 84 78 SW 17.5 20.1 - - - - - - 30.03 -
02:30 84 84 77 SW 15.6 17.9 - - - - - - 30.02 -
02:40 84 84 78 SW 15.6 17.9 - - - - - - 30.02 -
02:50 84 84 78 SW 15.6 17.9 4 3.94 exactly 3.9 4 3.28 2.46 - 4.10 8 1.64 0.82 - 2.46 30.01 -
03:10 84 84 77 SW 15.6 17.9 - - - - - - 30.01 -
03:30 84 84 76 SW 15.6 17.9 - - - - - - 30.01 -
03:50 84 84 76 SW 15.6 17.9 5 3.61 exactly 3.6 5 3.28 2.46 - 4.10 - - - 30.01 -

Detailed Wave Spectra

Time Water Depth Wave Height Spectral Peak Period Average Wave Period Sampling Interval Wave Record
21:00 128 ft 2.00 ft 9.1 sec 3.8 sec 0.6 sec 2400 sec
23:00 128 ft 2.33 ft 3.3 sec 3.5 sec 0.6 sec 2400 sec
01:00 128 ft 2.69 ft 3.6 sec 3.7 sec 0.6 sec 2400 sec
03:00 128 ft 2.82 ft 4.0 sec 3.9 sec 0.6 sec 2400 sec
04:00 128 ft 2.85 ft 4.3 sec 4.0 sec 0.6 sec 2400 sec
06:00 128 ft 2.89 ft 4.0 sec 4.0 sec 0.6 sec 2400 sec
07:00 128 ft 3.05 ft 4.3 sec 4.0 sec 0.6 sec 2400 sec
08:00 128 ft 3.15 ft 4.5 sec 4.0 sec 0.6 sec 2400 sec
09:00 128 ft 2.95 ft 4.5 sec 4.0 sec 0.6 sec 2400 sec
11:00 128 ft 2.95 ft 4.8 sec 4.2 sec 0.6 sec 2400 sec
16:00 128 ft 2.79 ft 4.2 sec 4.0 sec 0.6 sec 2400 sec
19:00 128 ft 2.26 ft 4.3 sec 3.8 sec 0.6 sec 2400 sec
20:00 128 ft 2.30 ft 7.1 sec 3.8 sec 0.6 sec 2400 sec
22:00 128 ft 2.36 ft 7.1 sec 3.6 sec 0.6 sec 2400 sec
00:00 128 ft 3.05 ft 3.8 sec 3.7 sec 0.6 sec 2400 sec
02:00 128 ft 3.44 ft 4.3 sec 3.9 sec 0.6 sec 2400 sec